Rbgn^[z[y[W
メイン
   新天体発見情報
     Comet C/2020 H7 (Lemmon)
投稿するにはまず登録を

スレッド表示 | 新しいものから 前のトピック | 次のトピック | 下へ
投稿者 スレッド
佐藤裕久
投稿日時: 2020-6-26 1:16
モデレータ
登録日: 2005-6-12
居住地: 日本
投稿: 2087
オンライン
Comet C/2020 H7 (Lemmon)

4月29.4日UT、G. J. Leonardは、Mt Lemmon サーベイの1.5-m 反射望遠鏡で得た画像から
小惑星状天体を発見した。
他の観測者によって彗星状に見えることがわかり小惑星センターのPCCP webpageに公表された。
佐藤英貴氏(東京都文京区, Sierra Remote天文台, 0.61-m f/6.5 アストログラフ, Auberry,
カリフォルニア州, 遠隔操作)は、5月2.5日UT, 60秒露出14枚のスタックで、恒星状に見えた。
3".7の円形範囲で測定した光度は20.8等であった。
E. Bryssinck (0.4-m f/3.8 反射望遠鏡, Kruibeke, ベルギー, 5月11.94-11.97日UT、フィル
ターなし120秒露出25枚のスタックで、拡散し、8"×11"の南北方向に(p.a.約183°)伸びた
コマが見えた。5"の範囲で測定した光度は20.0等であった)らCCD位置観測者によって彗星状と
観測された。

彗星機能の追加報告は次の通り:

OC   Date        Reporter           Coma    Tail    PA          Exposures
J95  2020-05-06  P. Birtwhistle      4"       9"    110
B96  2020-05-11  E. Bryssinck        8"                         25x120s
F65  2020-05-12  P. Breitenstein     3"       6"    145          5x70s
I52  2020-05-13  D. Rankin           7"
256  2020-05-17  M. Tichy            5"                          25s

発見位置は次のとおり、

     2020 UT             R.A. (2000) Decl.       Mag.   Observer
     Apr. 29.42332   17 40 11.31   +27 32 32.7   20.6   Leonard
          29.42852   17 40 10.87   +27 32 36.9   20.7     "
          29.43376   17 40 10.38   +27 32 40.7   20.7     "
          29.43900   17 40 09.92   +27 32 44.9   20.6     "
          29.47407   17 40 06.79   +27 33 12.2   20.6     "
          29.47764   17 40 06.48   +27 33 14.9            "
          29.47919   17 40 06.33   +27 33 15.5            "

MPCの楕円軌道要素と位置推算表は次のとおり、

Orbital elements:
    C/2020 H7 (Lemmon)                                                          
T 2020 June 2.95098 TT                                  Rudenko                 
q   4.4195447            (2000.0)            P               Q                  
z  +0.0007119      Peri.   82.67797     -0.32117508     -0.85193772             
                   Node   323.51939     -0.86962209     +0.43823332             
e   0.9968538      Incl.  135.92349     +0.37497200     +0.28662463             
From 136 observations 2020 Apr. 29-May 21.                                      
                                                                                
Ephemeris:
Date    TT    R. A. (2000) Decl.     Delta      r    Elong.  Phase   m1
2020 04 21    17 51 34.6 +25 38 26   3.9657  4.4335   111.5    12.2  20.5
...
2020 05 06    17 29 59.1 +28 55 29   3.8235  4.4254   120.8    11.3  20.4
...
2020 05 14    17 16 10.4 +30 25 22   3.7770  4.4226   124.0    10.9  20.3
...
2020 05 20    17 04 58.5 +31 22 29   3.7569  4.4210   125.4    10.8  20.3
2020 05 21    17 03 03.1 +31 31 01   3.7548  4.4208   125.6    10.7  20.3
2020 05 22    17 01 06.9 +31 39 15   3.7531  4.4206   125.7    10.7  20.3
...
2020 05 28    16 49 16.1 +32 22 03   3.7508  4.4198   125.7    10.7  20.3
...
2020 06 05    16 33 10.4 +33 00 34   3.7682  4.4196   124.3    10.9  20.3
...
2020 06 20    16 03 54.7 +33 15 15   3.8605  4.4217   117.4    11.8  20.4

(MPEC 2020-K107、CBET 4777) 

スレッド表示 | 新しいものから 前のトピック | 次のトピック | トップ

投稿するにはまず登録を
 
© 1999 Tsutomu Seki.